Weather History for Francistown, Botswana

Change the Weather History Date:

Wednesday, June 26, 2013

  Actual Average Record
Temperature  
Mean Temperature 62 °F -  
Max Temperature 80 °F 72 °F 80 °F (2013)
Min Temperature 44 °F 41 °F 26 °F (2011)
Degree Days  
Heating Degree Days 3    
Growing Degree Days 12 (Base 50)    
Moisture  
Dew Point 41 °F    
Average Humidity 49    
Maximum Humidity 76    
Minimum Humidity 26    
Precipitation  
Precipitation 0.00 in - - ()
Sea Level Pressure  
Sea Level Pressure 30.11 in    
Wind  
Wind Speed 4 mph ()    
Max Wind Speed 15 mph    
Max Gust Speed -    
Visibility 6.0 miles    
Events      
Averages and records for this station are not official NWS values.
T = Trace of Precipitation, MM = Missing Value Source: Averaged Metar Reports

Daily Weather History Graph

Daily Weather History Graph

Search for Another Location

Airport:

Trip Planner

Search our weather history database for the weather conditions in past years. The results will help you decide how hot, cold, wet, or windy it might be!

Date:

Astronomy

Jun. 26, 2013 Rise Set
Actual Time 6:47 AM CAT 5:38 PM CAT
Civil Twilight 6:23 AM CAT 6:02 PM CAT
Nautical Twilight 5:55 AM CAT 6:30 PM CAT
Astronomical Twilight 5:28 AM CAT 6:57 PM CAT
Moon 9:06 PM CAT (6/26) 9:11 AM CAT (6/26)
Length of Visible Light 11h 39m
Length of Day
10h 51m
Waning Gibbous, 87% of the Moon is Illuminated
Jun 26
Waning Gibbous
Jun 30
Last Quarter
Jul 8
New
Jul 16
First Quarter
Jul 22
Full

Hourly Weather History & Observations

Time (CAT) Temp. Windchill Dew Point Humidity Pressure Visibility Wind Dir Wind Speed Gust Speed Precip Events Conditions
12:00 AM 53.6 °F - 44.6 °F 72% 30.15 in - NNW 3.5 mph - N/A   Clear
2:00 AM 49 °F - 39 °F 58%  in 6 mi Calm Calm - -   Partly Cloudy
2:00 AM 50.0 °F - 41.0 °F 71% 30.12 in - Calm Calm - N/A   Clear
3:00 AM 48.2 °F - 37.4 °F 66% 30.12 in - North 4.6 mph - N/A   Clear
5:00 AM 46.4 °F - 37.4 °F 71% 30.12 in - Calm Calm - N/A   Clear
6:00 AM 44.6 °F - 37.4 °F 76% 30.12 in - Calm Calm - N/A   Clear
7:00 AM 44.6 °F 41.4 °F 37.4 °F 76% 30.12 in - North 5.8 mph - N/A   Clear
8:00 AM 48 °F - 38 °F 57%  in 6 mi East 5.8 mph - -   Partly Cloudy
8:00 AM 48.2 °F - 37.4 °F 66% 30.15 in - North 5.8 mph - N/A   Clear
9:00 AM 62.6 °F - 44.6 °F 52% 30.15 in - North 8.1 mph - N/A   Clear
10:00 AM 71.6 °F - 44.6 °F 38% 30.18 in - West 5.8 mph - N/A   Clear
11:00 AM 75.2 °F - 46.4 °F 36% 30.15 in - North 4.6 mph - N/A   Clear
12:00 PM 77.0 °F - 44.6 °F 32% 30.15 in - NW 9.2 mph - N/A   Clear
1:00 PM 78.8 °F - 44.6 °F 30% 30.12 in - WNW 8.1 mph - N/A   Clear
2:00 PM 78.8 °F - 44.6 °F 30% 30.09 in - West 15.0 mph - N/A   Clear
3:00 PM 80.6 °F - 42.8 °F 26% 30.06 in - WSW 12.7 mph - N/A   Clear
4:00 PM 78.8 °F - 42.8 °F 28% 30.06 in - NNW 5.8 mph - N/A   Clear
5:00 PM 78.8 °F - 41.0 °F 26% 30.06 in - WNW 5.8 mph - N/A   Clear
6:00 PM 73.4 °F - 42.8 °F 33% 30.06 in - WNW 4.6 mph - N/A   Clear
7:00 PM 66.2 °F - 41.0 °F 40% 30.09 in - NW 4.6 mph - N/A   Clear
8:00 PM 60.8 °F - 37.4 °F 42% 30.09 in - West 10.4 mph - N/A   Clear
9:00 PM 60.8 °F - 37.4 °F 42% 30.09 in - NNW 4.6 mph - N/A   Clear
10:00 PM 57.2 °F - 37.4 °F 48% 30.12 in - NW 3.5 mph - N/A   Clear
11:00 PM 53.6 °F - 37.4 °F 54% 30.12 in - NNE 3.5 mph - N/A   Clear